Regional Weather Roundup
Issued by NWS

Home | Current Version | Previous Version | Text Only | Print | Product List | Glossary On
Versions: 1 2 3 4 5 6 7 8 9 10 11 12 13 14 15 16 17 18 19 20 21 22 23 24 25 26 27 28 29 30 31 32 33 34 35 36 37 38 39 40 41 42 43 44 45 46 47 48 49 50
000
ASUS45 KREV 211210
RWRNV
NEVADA REGIONAL WEATHER ROUNDUP
NATIONAL WEATHER SERVICE RENO NV
500 AM PDT TUE OCT 21 2014

NOTE: "FAIR" INDICATES FEW OR NO CLOUDS BELOW 12,000 FEET WITH NO
SIGNIFICANT WEATHER AND/OR OBSTRUCTIONS TO VISIBILITY.

NVZ001-003-004-211300-
WESTERN NEVADA

CITY           SKY/WX    TMP DP  RH WIND       PRES   REMARKS
RENO           CLEAR     43  30  60 CALM      30.06R
6HR MIN TEMP:  43; 6HR MAX TEMP:  51; 6HR PCP: TRACE;

CARSON CITY    FAIR      46  23  39 W12       30.04F
MINDEN         FAIR      36  16  44 NE5       30.05
SLIDE MTN        N/A     25  12  58 W48         N/A
FALLON         PTCLDY    48  25  40 NE6       30.05R
6HR MIN TEMP:  43; 6HR MAX TEMP:  60;

LOVELOCK       PTCLDY    43  27  53 W10       30.04R
6HR MIN TEMP:  42; 6HR MAX TEMP:  56;

HAWTHORNE      CLEAR     54  32  43 W14       30.02R
$$

NVZ002-CAZ072-073-211300-
NORTHERN AND CENTRAL SIERRA

CITY           SKY/WX    TMP DP  RH WIND       PRES   REMARKS
S. LAKE TAHOE  CLEAR     38  21  50 VRB5      30.08F
6HR MIN TEMP:  36; 6HR MAX TEMP:  42; 6HR PCP: TRACE;

TRUCKEE        CLEAR     28  27  93 SW3       30.10S
SQUAW VLY 8000 NOT AVBL
SUSANVILLE     PTCLDY    41  34  75 W7        30.08
BLUE CANYON    CLEAR     36  33  89 E5        30.10S
MAMMOTH LAKES  FAIR      39  23  52 CALM      30.08F
$$

NVZ030-031-036-211300-
NORTHERN NEVADA

CITY           SKY/WX    TMP DP  RH WIND       PRES   REMARKS
ELKO           MOCLDY    47  34  60 S13       30.00R
6HR MIN TEMP:  47; 6HR MAX TEMP:  63; 6HR PCP: TRACE;

WINNEMUCCA     CLEAR     43  34  70 W18       30.01S
6HR MIN TEMP:  41; 6HR MAX TEMP:  57; 6HR PCP:  0.05;

WENDOVER       PTCLDY    61  36  39 S15       29.85R
$$

NVZ035-037-211300-
CENTRAL NEVADA

CITY           SKY/WX    TMP DP  RH WIND       PRES   REMARKS
ELY            CLEAR     52  33  48 S12       29.99R
6HR MIN TEMP:  50; 6HR MAX TEMP:  58;

EUREKA           N/A     43  29  57 SE3       30.04R
6HR MIN TEMP:  43; 6HR MAX TEMP:  62;

$$

NVZ013-014-211300-
SOUTH CENTRAL NEVADA

CITY           SKY/WX    TMP DP  RH WIND       PRES   REMARKS
TONOPAH        CLEAR     46  24  42 N14       30.01R
6HR MIN TEMP:  44; 6HR MAX TEMP:  53;

$$

NVZ017-020-022-211300-
SOUTHERN NEVADA

CITY           SKY/WX    TMP DP  RH WIND       PRES   REMARKS
LAS VEGAS      PTCLDY    73  38  27 S18       29.81S
6HR MIN TEMP:  72; 6HR MAX TEMP:  78;

N. LAS VEGAS   CLEAR     67  38  34 SE8       29.83S
6HR MIN TEMP:  67; 6HR MAX TEMP:  76;

NELLIS AFB     CLEAR     75  41  29 S16       29.82F
6HR MIN TEMP:  73; 6HR MAX TEMP:  77;

HENDERSON      CLEAR     67  38  34 S9        29.87F
6HR MIN TEMP:  67; 6HR MAX TEMP:  74;

MERCURY        CLEAR     66  34  30 VRB5      29.87R
6HR MIN TEMP:  66; 6HR MAX TEMP:  74;

$$


USA.gov is the U.S. government's official web portal to all federal, state and local government web resources and services.